Regional Weather Roundup
Issued by NWS

Home | Current Version | Previous Version | Graphics & Text | Print | Product List | Glossary On
Versions: 1 2 3 4 5 6 7 8 9 10 11 12 13 14 15 16 17 18 19 20 21 22 23 24 25 26 27 28 29 30 31 32 33 34 35 36 37 38 39 40 41 42 43 44 45 46 47 48 49 50
000
ASUS43 KLSX 171359
RWRMO

WEATHER SUMMARY FOR MISSOURI
NATIONAL WEATHER SERVICE SPRINGFIELD MO
900 AM CDT WED SEP 17 2014

NOTE: "FAIR" INDICATES FEW OR NO CLOUDS BELOW 12,000 FEET WITH NO
       SIGNIFICANT WEATHER AND/OR OBSTRUCTIONS TO VISIBILITY.
       CURRENT SKY AND/OR WEATHER CONDITIONS ARE NOT AVAILABLE FOR
       CHILLICOTHE AND FARMINGTON.

MOZ001>031-035>038-043-044-053-054-171500-
...NORTHERN AND WESTERN MISSOURI...

CITY           SKY/WX    TMP DP  RH WIND       PRES   REMARKS
KANSAS CTY INT DRIZZLE   63  62  97 SE5       29.93S FOG
KANSAS C DTWN  CLOUDY    65  63  93 E3        29.93S FOG
LEE`S SUMMIT   CLOUDY    64  63  96 CALM      29.94S
ST JOSEPH      CLOUDY    63  61  93 SE3       29.94S
KIRKSVILLE     CLOUDY    57  54  89 E5        29.99S FOG

$$
MOZ066>068-077>081-088>096-101>105-171500-
...SOUTHWEST MISSOURI...

CITY           SKY/WX    TMP DP  RH WIND       PRES   REMARKS
SPRINGFIELD    TSTM      65  63  93 SW8       29.99R FOG
JOPLIN         MOSUNNY   73  69  87 SW10      29.94F

$$
MOZ032>034-039>042-045>050-055>058-069>072-171500-
...CENTRAL MISSOURI...

CITY           SKY/WX    TMP DP  RH WIND       PRES   REMARKS
COLUMBIA       CLOUDY   N/A N/A N/A SE8       29.98F HAZE
JEFFERSON CITY LGT RAIN  60  57  89 SE10      29.96F FOG
ROLLA          LGT RAIN  57  56  96 S14       29.99S FOG
SEDALIA        LGT RAIN  64  62  93 SE6       29.95F FOG
OSAGE BEACH    CLOUDY    63  61  94 E6        29.96S

$$
MOZ051-052-059>065-171500-
...EAST CENTRAL MISSOURI...

CITY           SKY/WX    TMP DP  RH WIND       PRES   REMARKS
ST LOUIS INTL  PTSUNNY   60  51  72 S7        30.05R
SPIRIT OF STL  CLOUDY    57  52  83 CALM      30.03R
ST CHARLES     CLOUDY    57  53  86 CALM      30.04R

$$
MOZ072>076-082>087-097>100-106>115-171500-
...SOUTH CENTRAL AND SOUTHEAST MISSOURI...

CITY           SKY/WX    TMP DP  RH WIND       PRES   REMARKS
CAPE GIRARDEAU MOSUNNY   58  54  86 S5        30.04R
FARMINGTON     CLOUDY    55  52  88 S5        30.06R
POPLAR BLUFF   CLOUDY    58  51  78 E3        30.04R
WEST PLAINS    LGT RAIN  61  58  90 MISG      30.04S

$$



USA.gov is the U.S. government's official web portal to all federal, state and local government web resources and services.